[[{"header":{"parameterUnit":"m.s-1","parameterCategory":1,"la1":30.2991,"la2":30.254,"lo1":-89.0895,"lo2":-89.0444,"dy":0.0017,"dx":0.0017,"nx":28,"ny":28,"refTime":"2024-06-10T21:00:00:Z","depth":0,"parameterNumber":2,"parameterNumberName":"U-component_of_WINDS"},"data":[0,0,0,0,0,0,0,0,0,0,0,0,0,0,0,0,0,0,0,0,0,0,0,0,0,0,0,0,0,0,0,0,0,0,0,0,0,0,0,0,0,0,0,0,0,0,0,0,0,0,0,0,0,0,0,0,0,0,-0.0539,-0.0539,0,-0.0499,-0.0499,-0.0498,-0.0583,-0.0586,-0.0589,-0.0591,-0.0537,-0.0533,-0.0529,0,0,0,0,0,0,0,0,0,0,0,0,0,-0.0676,-0.0673,-0.0539,-0.0539,-0.0538,-0.0499,-0.0499,-0.0498,-0.0583,-0.0586,-0.0589,-0.0592,-0.0539,-0.0534,-0.0529,0,0,0,0,0,0,0,0,0,0,0,0,0,-0.0624,-0.0672,-0.0539,-0.0576,-0.0579,-0.0499,-0.0499,-0.0498,-0.0582,-0.0586,-0.059,-0.0594,-0.054,-0.0534,-0.0528,-0.0408,0,0,-0.051,-0.0507,0,0,0,0,0,0,0,0,-0.0627,-0.0619,-0.0571,-0.0573,-0.0576,-0.0551,-0.0527,-0.0467,-0.0581,-0.058,-0.0591,-0.0596,-0.0537,-0.0532,-0.0515,-0.0405,-0.0403,-0.0509,-0.0506,-0.0503,-0.0501,0,0,0,0,0,0,0,-0.063,-0.0621,-0.0523,-0.057,-0.0573,-0.059,-0.0588,-0.0516,-0.0535,-0.0581,-0.0587,-0.0581,-0.054,-0.0521,-0.0514,-0.0402,-0.051,-0.0504,-0.05,-0.0498,-0.0189,-0.0184,0,0,0,0,0,0,-0.0631,-0.0623,-0.0524,-0.0522,-0.0613,-0.0584,-0.0581,-0.0554,-0.0537,-0.0538,-0.0578,-0.0586,-0.0529,-0.0521,-0.0513,-0.0368,-0.0503,-0.0498,-0.0494,-0.0193,-0.0188,-0.0183,0,0,0,0,0,0,-0.0634,-0.0621,-0.0526,-0.0574,-0.0564,-0.0578,-0.0547,-0.0551,-0.0533,-0.0535,-0.0537,-0.0556,-0.0532,-0.0521,-0.0434,-0.0368,-0.0495,-0.0489,-0.0199,-0.0192,-0.0185,-0.0079,0,0,0,0,0,0,-0.0637,-0.0622,-0.0579,-0.0573,-0.0561,-0.045,-0.0543,-0.0548,-0.0523,-0.0533,-0.0515,-0.0515,-0.0534,-0.0442,-0.0428,-0.0362,-0.0485,-0.0205,-0.0196,-0.0188,-0.0089,-0.007,-0.0053,0,0,0,0,0,-0.0642,-0.0548,-0.0576,-0.0564,-0.0508,-0.0447,-0.0439,-0.0467,-0.0518,-0.0473,-0.0474,-0.0516,-0.0378,-0.0433,-0.0417,-0.0348,-0.0209,-0.0198,-0.0188,-0.0097,-0.0073,-0.0054,0,0,0,0,0,0,-0.0541,-0.0548,-0.0579,-0.0482,-0.0463,-0.0461,-0.0405,-0.0441,-0.0405,-0.0415,-0.0447,-0.0442,-0.0347,-0.0339,-0.04,-0.0229,-0.0302,-0.0287,-0.0237,-0.0215,-0.0198,-0.02,-0.048,0,0,0,0,0,-0.0508,-0.0462,-0.0469,-0.0382,-0.0372,-0.039,-0.0364,-0.0388,-0.0368,-0.0359,-0.0355,-0.0331,-0.0282,-0.0249,-0.0204,-0.0089,-0.0084,-0.0034,-0.0017,-0.0002,0.0012,0.0076,0.0099,-0.0149,-0.0149,-0.0149,0,0,-0.0438,-0.0436,-0.0404,-0.0362,-0.0351,-0.0298,-0.0383,-0.0324,-0.0283,-0.0349,-0.0267,-0.0262,-0.0237,-0.0135,-0.009,-0.0126,0.0081,0.0011,0.0023,0.0029,0.0089,0.0112,0.0133,-0.0142,-0.0143,-0.0144,0,0,-0.0283,-0.0279,-0.0205,-0.0193,-0.0177,-0.019,-0.0172,-0.0165,-0.0166,-0.0085,-0.0133,-0.0084,-0.0,0.002,0.0041,0.0202,0.0167,0.0218,0.0312,0.0374,0.0394,0.0411,0.0472,0.0494,0.0231,0.0231,0.0231,0,-0.0196,-0.0124,-0.0162,-0.01,-0.0078,-0.0141,-0.0064,-0.0049,-0.0016,0.0002,-0.0041,0.0063,0.0076,0.0183,0.0222,0.024,0.0263,0.0217,0.0393,0.041,0.0426,0.0484,0.0506,0.0237,0.0237,0.0236,0.0235,0,-0.0017,0.0035,0.0093,0.0121,0.0149,0.0218,0.0195,0.0228,0.0202,0.0195,0.028,0.0291,0.0338,0.0361,0.0338,0.0466,0.0443,0.0397,0.0325,0.0457,0.0511,0.0532,0.0246,0.0244,0.0242,0.0241,0,0,0.0207,0.021,0.0233,0.0245,0.0257,0.0299,0.0366,0.0407,0.0438,0.0462,0.0521,0.0592,0.055,0.0574,0.0553,0.0607,0.0737,0.0555,0.0555,0.0592,0.0883,0.092,0.0946,0.0712,0.0716,0.0719,0.0882,0,0.0362,0.0474,0.0441,0.0555,0.0604,0.0545,0.0604,0.0621,0.0615,0.066,0.0655,0.0707,0.0645,0.066,0.0711,0.0711,0.0796,0.0698,0.0771,0.0774,0.0771,0.0973,0.1013,0.1166,0.0902,0.0906,0.0908,0,0.0559,0.0586,0.0704,0.0709,0.0728,0.0782,0.0817,0.0858,0.0877,0.0869,0.0895,0.0862,0.0933,0.0856,0.0956,0.089,0.0918,0.0922,0.0927,0.0937,0.0852,0.0992,0.1214,0.1239,0.0941,0.0938,0.0936,0,0.0715,0.0781,0.086,0.0872,0.0878,0.0918,0.0923,0.0937,0.0964,0.0996,0.1014,0.1055,0.1079,0.1114,0.1095,0.104,0.1199,0.112,0.1199,0.12,0.1239,0.1238,0.1473,0.125,0.125,0.1249,0.1249,0,0.0894,0.097,0.093,0.0979,0.1063,0.1025,0.1111,0.111,0.1122,0.1174,0.1125,0.1175,0.1144,0.1193,0.1179,0.1266,0.1276,0.1276,0.1272,0.1282,0.1283,0.1303,0.1294,0.1256,0.1254,0.1253,0.1252,0,0.1084,0.1059,0.1143,0.114,0.1141,0.1204,0.1204,0.1252,0.1241,0.1307,0.132,0.1306,0.1361,0.1343,0.1403,0.1394,0.1505,0.1485,0.1498,0.1494,0.1576,0.157,0.1836,0.1871,0.1622,0.1624,0.1626,0,0.1202,0.1258,0.1261,0.1289,0.1296,0.1344,0.1369,0.1335,0.1365,0.1389,0.1436,0.1485,0.1523,0.1614,0.1612,0.1658,0.1642,0.1732,0.165,0.1659,0.1649,0.1647,0.1655,0.1751,0.1753,0.1756,0.1757,0,0.1416,0.1401,0.1437,0.1471,0.1502,0.1528,0.1549,0.1577,0.1543,0.158,0.1633,0.1662,0.1721,0.1773,0.1814,0.1825,0.1789,0.1782,0.1804,0.1818,0.1824,0.1826,0.1547,0.1778,0.1776,0.1774,0.1773,0.1772,0.1577,0.1624,0.1633,0.1676,0.1687,0.1709,0.1753,0.1747,0.1789,0.1831,0.1809,0.1872,0.189,0.1941,0.1956,0.2008,0.1974,0.2005,0.2013,0.2022,0.2034,0.1812,0.2015,0.2014,0.2014,0.2013,0.2013,0,0.1792,0.1793,0.1832,0.1862,0.1897,0.1852,0.1874,0.1908,0.1962,0.1979,0.2016,0.2079,0.2128,0.2128,0.2175,0.2216,0.2201,0.223,0.223,0.2233,0.206,0.2038,0.2242,0.2242,0.2242,0.2242,0.2242,0.2242,0.1908,0.1986,0.1972,0.2057,0.2059,0.2116,0.2133,0.2153,0.2167,0.2237,0.2276,0.2273,0.2286,0.2332,0.2377,0.2376,0.2398,0.2435,0.2429,0.2268,0.2245,0.2224,0.2203,0.2439,0.2439,0.2598,0.2599,0.2601]},{"header":{"parameterUnit":"m.s-1","parameterCategory":1,"la1":30.2991,"la2":30.254,"lo1":-89.0895,"lo2":-89.0444,"dy":0.0017,"dx":0.0017,"nx":28,"ny":28,"refTime":"2024-06-10T21:00:00:Z","depth":0,"parameterNumber":3,"parameterNumberName":"V-component_of_WINDS"},"data":[0,0,0,0,0,0,0,0,0,0,0,0,0,0,0,0,0,0,0,0,0,0,0,0,0,0,0,0,0,0,0,0,0,0,0,0,0,0,0,0,0,0,0,0,0,0,0,0,0,0,0,0,0,0,0,0,0,0,-1.3856,-1.3855,0,-1.3835,-1.3834,-1.3834,-1.3893,-1.3895,-1.3897,-1.3899,-1.3874,-1.3871,-1.3869,0,0,0,0,0,0,0,0,0,0,0,0,0,-1.3943,-1.3941,-1.3856,-1.3855,-1.3855,-1.3835,-1.3834,-1.3834,-1.3893,-1.3895,-1.3898,-1.39,-1.3874,-1.3872,-1.3869,0,0,0,0,0,0,0,0,0,0,0,0,0,-1.3911,-1.394,-1.3856,-1.3882,-1.3884,-1.3835,-1.3834,-1.3834,-1.3893,-1.3895,-1.3898,-1.3901,-1.3875,-1.3872,-1.3868,-1.3791,0,0,-1.3857,-1.3856,0,0,0,0,0,0,0,0,-1.3913,-1.3908,-1.3879,-1.388,-1.3883,-1.387,-1.3856,-1.3819,-1.3892,-1.3889,-1.3899,-1.3902,-1.387,-1.3867,-1.3857,-1.379,-1.3789,-1.3857,-1.3855,-1.3853,-1.3852,0,0,0,0,0,0,0,-1.3915,-1.3909,-1.3847,-1.3878,-1.3881,-1.3894,-1.3892,-1.3849,-1.3864,-1.389,-1.3894,-1.3891,-1.3871,-1.386,-1.3857,-1.3788,-1.3857,-1.3854,-1.3852,-1.385,-1.3653,-1.365,0,0,0,0,0,0,-1.3914,-1.3911,-1.3848,-1.3847,-1.3905,-1.389,-1.3888,-1.3871,-1.3865,-1.3867,-1.3889,-1.3894,-1.3865,-1.3861,-1.3856,-1.3763,-1.3853,-1.385,-1.3848,-1.3656,-1.3653,-1.3649,0,0,0,0,0,0,-1.3916,-1.3908,-1.3849,-1.388,-1.3873,-1.3885,-1.3865,-1.3869,-1.3858,-1.3864,-1.3867,-1.3874,-1.3867,-1.3861,-1.3806,-1.3763,-1.3848,-1.3845,-1.366,-1.3655,-1.3651,-1.3577,0,0,0,0,0,0,-1.3918,-1.3909,-1.388,-1.3879,-1.3871,-1.3801,-1.3863,-1.3867,-1.3852,-1.3858,-1.3851,-1.3853,-1.3869,-1.3811,-1.3802,-1.3759,-1.3842,-1.3664,-1.3658,-1.3652,-1.3583,-1.357,-1.3559,0,0,0,0,0,-1.3921,-1.386,-1.3879,-1.3871,-1.3837,-1.3798,-1.3794,-1.3814,-1.3848,-1.3819,-1.3823,-1.3853,-1.3769,-1.3805,-1.3796,-1.3751,-1.3667,-1.366,-1.3653,-1.3588,-1.3572,-1.3559,0,0,0,0,0,0,-1.3856,-1.3861,-1.3881,-1.3818,-1.3807,-1.3808,-1.3772,-1.3797,-1.3775,-1.3782,-1.3807,-1.3805,-1.3745,-1.3743,-1.3783,-1.3674,-1.3723,-1.3714,-1.3678,-1.3663,-1.3651,-1.3652,-1.3839,0,0,0,0,0,-1.3834,-1.3804,-1.3809,-1.3753,-1.3746,-1.376,-1.3744,-1.376,-1.375,-1.3745,-1.3745,-1.3732,-1.3703,-1.3683,-1.3656,-1.3583,-1.3581,-1.3547,-1.3535,-1.3526,-1.3517,-1.3475,-1.346,-1.3627,-1.3627,-1.3627,0,0,-1.3789,-1.3788,-1.3767,-1.3739,-1.3733,-1.3699,-1.3756,-1.3718,-1.3692,-1.3739,-1.3687,-1.3686,-1.3673,-1.3608,-1.358,-1.3605,-1.347,-1.3517,-1.3509,-1.3505,-1.3466,-1.3451,-1.3437,-1.3622,-1.3623,-1.3623,0,0,-1.3689,-1.3686,-1.3637,-1.363,-1.3619,-1.3628,-1.3616,-1.3613,-1.3615,-1.3563,-1.3597,-1.3566,-1.3515,-1.3504,-1.3492,-1.3385,-1.3411,-1.3376,-1.3312,-1.3271,-1.3258,-1.3247,-1.3206,-1.3191,-1.3367,-1.3367,-1.3367,0,-1.3633,-1.3585,-1.3609,-1.3568,-1.3554,-1.3596,-1.3545,-1.3536,-1.3517,-1.3505,-1.3534,-1.347,-1.3464,-1.3396,-1.337,-1.3359,-1.3345,-1.3376,-1.3258,-1.3247,-1.3236,-1.3198,-1.3183,-1.3363,-1.3363,-1.3364,-1.3364,0,-1.3516,-1.3482,-1.3444,-1.3424,-1.3406,-1.3361,-1.3376,-1.3354,-1.3372,-1.3377,-1.3323,-1.3317,-1.3289,-1.3275,-1.3292,-1.3208,-1.3223,-1.3255,-1.3305,-1.3216,-1.318,-1.3166,-1.3356,-1.3358,-1.3359,-1.336,0,0,-1.3374,-1.3368,-1.3354,-1.3344,-1.3335,-1.3308,-1.3263,-1.3237,-1.3216,-1.3201,-1.3163,-1.3118,-1.3147,-1.3133,-1.3148,-1.3113,-1.3025,-1.3148,-1.3148,-1.3123,-1.2929,-1.2904,-1.2887,-1.3043,-1.304,-1.3038,-1.293,0,-1.3274,-1.3199,-1.3218,-1.3143,-1.3109,-1.3147,-1.3108,-1.3097,-1.31,-1.3071,-1.3075,-1.3042,-1.3083,-1.3075,-1.3041,-1.3043,-1.2986,-1.3051,-1.3005,-1.3003,-1.3005,-1.2869,-1.2843,-1.274,-1.2916,-1.2914,-1.2912,0,-1.3147,-1.3127,-1.3048,-1.3042,-1.3029,-1.2993,-1.2969,-1.2942,-1.2929,-1.2934,-1.2917,-1.2939,-1.2893,-1.2944,-1.2879,-1.2923,-1.2905,-1.2903,-1.2899,-1.2894,-1.2951,-1.2858,-1.2709,-1.2692,-1.2891,-1.2892,-1.2894,0,-1.3049,-1.3002,-1.2948,-1.2939,-1.2931,-1.2905,-1.29,-1.289,-1.2872,-1.285,-1.2838,-1.2811,-1.2796,-1.2774,-1.2787,-1.2824,-1.2719,-1.2772,-1.2719,-1.2718,-1.2694,-1.2695,-1.2538,-1.2686,-1.2686,-1.2687,-1.2687,0,-1.2934,-1.2883,-1.2904,-1.287,-1.2814,-1.2836,-1.2779,-1.2778,-1.2769,-1.2734,-1.2766,-1.2732,-1.2753,-1.2721,-1.2731,-1.2674,-1.2667,-1.2668,-1.2671,-1.2664,-1.2663,-1.2651,-1.2658,-1.2682,-1.2683,-1.2684,-1.2685,0,-1.2814,-1.2826,-1.2769,-1.2766,-1.2764,-1.2722,-1.2719,-1.2686,-1.2692,-1.2648,-1.2639,-1.2646,-1.261,-1.2621,-1.2582,-1.2589,-1.2515,-1.2529,-1.252,-1.2522,-1.2468,-1.2472,-1.2296,-1.2272,-1.2438,-1.2436,-1.2435,0,-1.2739,-1.2701,-1.2693,-1.2673,-1.2666,-1.2633,-1.2614,-1.2633,-1.2612,-1.2593,-1.2563,-1.2529,-1.2503,-1.2442,-1.2443,-1.2412,-1.2424,-1.2364,-1.2419,-1.2413,-1.242,-1.2421,-1.2416,-1.2352,-1.235,-1.2349,-1.2348,0,-1.2604,-1.2611,-1.2584,-1.2557,-1.2534,-1.2514,-1.2497,-1.2478,-1.2496,-1.247,-1.2433,-1.2413,-1.2372,-1.2337,-1.2309,-1.2302,-1.2326,-1.233,-1.2316,-1.2308,-1.2303,-1.2302,-1.2487,-1.2334,-1.2335,-1.2336,-1.2337,-1.2338,-1.2503,-1.2469,-1.2458,-1.2426,-1.2415,-1.2397,-1.2366,-1.2367,-1.2337,-1.2306,-1.2319,-1.2275,-1.2261,-1.2226,-1.2215,-1.218,-1.2203,-1.2183,-1.2177,-1.2171,-1.2163,-1.231,-1.2175,-1.2176,-1.2176,-1.2176,-1.2177,0,-1.2367,-1.2361,-1.2331,-1.2306,-1.2279,-1.2306,-1.2287,-1.2263,-1.2225,-1.221,-1.2183,-1.2139,-1.2105,-1.2103,-1.207,-1.2042,-1.2052,-1.2033,-1.2034,-1.2031,-1.2146,-1.2161,-1.2025,-1.2025,-1.2025,-1.2025,-1.2025,-1.2025,-1.2293,-1.2237,-1.2243,-1.2181,-1.2176,-1.2134,-1.2121,-1.2104,-1.2091,-1.2041,-1.2013,-1.2012,-1.2001,-1.1968,-1.1937,-1.1937,-1.1922,-1.1897,-1.1901,-1.2009,-1.2024,-1.2038,-1.2051,-1.1895,-1.1895,-1.1789,-1.1788,-1.1787]}]]